Flag for Switzerland Weather past 2 weeks in Emmen, Lucerne, Switzerland

Now
38 °F

Chilly.


Feels Like: 38 °F
Forecast: 23 / 48 °F
Wind: 1 mph from West

Location: Giswil

Current Time: Feb 28, 2015 at 6:41:00 PM

Latest Report: Feb 28, 2015 at 6:00 PM


Visibility: N/A

Pressure: 30.13 "Hg

Humidity: 79%

Dew point: 32 °F

Location of EmmenLocation

Historic Weather in Emmen — Graph

°F

Emmen temperature yesterday

Maximum temperature yesterday: 38 °F (at 4:00 PM)
Minimum temperature yesterday: 31 °F (at 12:00 AM)
Average temperature yesterday: 35 °F

Past Weeks' High & Low Weather Summary

 TemperatureHumidityPressure
High49 °F (Feb 20, 4:00 PM)100% (Feb 13, 6:00 PM)30.72 "Hg (Feb 13, 6:00 PM)
Low20 °F (Feb 20, 6:00 AM)31% (Feb 26, 4:00 PM)29.59 "Hg (Feb 21, 3:00 PM)
Average33 °F93%30.09 "Hg
* Reported Feb 13 5:00 PM — Feb 28 5:00 PM, Emmen, Weather by CustomWeather, © 2015

Note: Actual official high and low records may vary slightly from our data, if they occured in-between our weather recording intervals... More about our weather records

Advertising

Emmen weather history for previous 24 hours

 ConditionsComfort  
Time TempWeatherWind HumidityBarometerVisibility
5:00 PM
Sat, Feb 28
40 °FQuite cool.1 mph70%30.12 "HgN/A
4:00 PM40 °FChilly.No wind69%30.14 "HgN/A
3:00 PM40 °FChilly.1 mph70%30.14 "HgN/A
2:00 PM39 °FChilly.1 mph76%30.15 "HgN/A
1:00 PM38 °FChilly.2 mph83%30.17 "HgN/A
12:00 PM37 °FChilly.1 mph87%30.19 "HgN/A
11:00 AM36 °FChilly.1 mph90%30.20 "HgN/A
10:00 AM35 °FChilly.1 mph94%30.21 "HgN/A
9:00 AM34 °FChilly.1 mph97%30.23 "HgN/A
8:00 AM35 °FChilly.2 mph93%30.21 "HgN/A
7:00 AM36 °FChilly.3 mph91%30.20 "HgN/A
6:00 AM34 °FChilly.1 mph97%30.20 "HgN/A
5:00 AM34 °FChilly.1 mph98%30.19 "HgN/A
3:00 AM33 °FChilly.No wind98%30.20 "HgN/A
2:00 AM33 °FChilly.1 mph99%30.22 "HgN/A
1:00 AM33 °FChilly.2 mph98%30.23 "HgN/A
12:00 AM34 °FChilly.2 mph98%30.23 "HgN/A
11:00 PM
Fri, Feb 27
36 °FChilly.3 mph93%30.20 "HgN/A
9:00 PM36 °FChilly.No wind98%30.19 "HgN/A
8:00 PM36 °FChilly.1 mph97%30.17 "HgN/A
7:00 PM37 °FChilly.1 mph98%30.15 "HgN/A
6:00 PM38 °FChilly.No wind95%30.11 "HgN/A
Weather by CustomWeather, © 2015

See weather overviewHow to use our weather pages